Printer-friendly version

IAU Minor Planet Center

Minor Planet Center

MPEC 2003-E19 : COMET C/2002 V2 (LINEAR)

The following Minor Planet Electronic Circular may be linked-to from your own Web pages, but must not otherwise be redistributed electronically.


Read MPEC 2003-E18 Read MPEC 2003-E20


M.P.E.C. 2003-E19                                Issued 2003 Mar. 6, 15:41 UT

     The Minor Planet Electronic Circulars contain information on unusual
         minor planets and routine data on comets.  They are published
   on behalf of Commission 20 of the International Astronomical Union by the
          Minor Planet Center, Smithsonian Astrophysical Observatory,
                          Cambridge, MA 02138, U.S.A.

             Prepared using the Tamkin Foundation Computer Network

                              MPC@CFA.HARVARD.EDU
          URL http://cfa-www.harvard.edu/iau/mpc.html  ISSN 1523-6714

                           COMET C/2002 V2 (LINEAR)

Observations:
    CK02V020  C2001 01 03.38661 08 14 46.58 +05 02 28.3          19.5 N      608
    CK02V020  C2001 01 03.39686 08 14 46.15 +05 02 28.2          19.4 N      608
    CK02V020  C2001 01 03.40672 08 14 45.78 +05 02 29.4          19.5 N      608
    CK02V020  C2001 01 20.38978 08 02 46.58 +05 32 10.3          19.6 N      608
    CK02V020  C2001 02 23.29127 07 39 30.36 +06 55 25.7          19.5 N      608

Observer details:
608 Haleakala-NEAT/MSSS.  Observers E. F. Helin, S. Pravdo, K. Lawrence,
    P. Kervin, R. Maeda, J. Africano, M. Hicks.  Measurers R. Haver,
    A. Pelloni, G. Forti.  1.2-m reflector + CCD.

Orbital elements:
    C/2002 V2 (LINEAR)
Epoch 2003 May 1.0 TT = JDT 2452760.5
T 2003 May 13.58732 TT                                  MPC
q   6.8121151            (2000.0)            P               Q
z  +0.0001957      Peri.  314.67196     +0.42022343     +0.90396496
 +/-0.0000115      Node    20.23438     +0.88376378     -0.42748846
e   0.9986667      Incl.  166.77617     +0.20584911     -0.01004833
Residuals in seconds of arc
010103 608  0.0   0.3+    021109 349 (2.6-  0.1+)   021230 349  0.0   0.0
010103 608  0.1-  0.6-    021109 349  1.9-  0.7-    021230 349  1.9+  0.1-
010103 608  0.4+  0.3-    021109 349  0.0   0.6-    030102 411  0.4-  0.9-
010120 608  0.2-  0.1+    021112 704  0.9-  0.6-    030102 411  0.6+  1.0-
010223 608  0.0   0.5+    021112 704  1.7-  1.2-    030102 411  0.0   0.5-
021105 704  0.9+  0.3+    021112 704  1.9-  0.3-    030104 411  0.8-  0.8-
021105 704  0.1-  0.0     021112 360  0.0   0.4+    030104 411  0.6-  0.3+
021105 704  0.9+  0.1-    021112 360  0.2+  0.1+    030104 J95  0.2+  0.2-
021105 704  1.1+  0.5-    021112 360  0.1-  0.3+    030104 J95  1.3+  0.4-
021106 704  0.1+  0.5-    021114 673  0.3-  0.2+    030105 704 (1.7+  4.0+)
021106 704  0.7-  1.4+    021114 673  0.7-  0.2+    030105 704  0.3+  0.5+
021106 704  0.7-  0.0     021114 673  0.0   0.0     030105 704  1.5+  0.7+
021106 704  0.1+  1.4+    021128 341  0.4+  0.7-    030105 704  1.4+  0.4+
021106 704  0.5+  0.2-    021128 341  1.1-  0.9-    030105 704  0.1-  0.9-
021106 704  1.2-  0.3+    021128 341  0.3+  0.2+    030105 H43 (1.5+  2.3-)
021106 704  0.5+  0.6-    021128 341  0.7-  0.2-    030108 360  0.7-  0.2+
021106 704  1.2-  0.8+    021128 360  0.2-  0.1+    030108 360  0.3-  0.0
021106 704  0.5-  0.1+    021128 360  0.2-  0.3-    030117 246  0.4+  0.3-
021106 704  1.4-  1.7+    021201 204  0.2+  0.2+    030117 246  0.2+  0.6-
021106 734  0.1+  0.0     021201 204  0.1-  0.7-    030117 246  0.9+  0.0
021106 926  0.1+  0.5+    021201 204  0.2+  0.0     030117 246  0.1+  0.4-
021106 734  0.8+  0.0     021201 204  0.1+  0.5-    030117 246  1.2+  0.1-
021106 926  0.5-  0.1-    021201 204  0.1+  0.2-    030125 204  0.5-  0.1-
021106 649  0.3+  0.0     021201 204  1.0+  0.4+    030125 204  1.1-  0.3+
021106 926  0.4+  0.3+    021201 204  0.3+  0.0     030125 204  0.1-  0.3-
021106 649  0.1-  0.2+    021201 204  0.2-  0.5-    030126 699  0.3+  0.1-
021106 649  0.3+  0.2+    021201 204  0.5-  0.3+    030126 699  0.9+  0.4-
021107 246  0.2-  0.1-    021201 204  0.0   0.0     030126 699  0.3+  0.2-
021107 246  0.0   0.2+    021202 349  1.6+  1.0+    030126 699  1.0-  0.4+
021107 246  0.4+  0.1+    021202 349  0.9-  0.2+    030201 704  1.2-  0.6-
021107 246  0.3+  0.3-    021202 349  0.6+  0.4+    030201 704  0.7+  0.5+
021107 704  0.7-  0.3+    021202 349  0.2+  0.1+    030201 704  0.7+  0.8+
021107 734  1.0+  1.6+    021210 340  0.8+  0.9-    030202 360  1.6-  0.9+
021107 704  0.6-  0.7-    021210 340  1.1+  0.2+    030202 360  0.4-  1.0+
021107 734  0.4+  0.6-    021210 340  1.0+  1.3+    030226 246  0.5+  0.2+
021107 704  0.4-  0.2+    021213 360  0.0   0.1-    030226 246  0.4+  0.1+
021107 926  0.0   0.1+    021213 360  0.3-  0.4-    030226 246  0.2-  0.1+
021107 704  1.4+  0.3+    021225 046  0.4-  0.5-    030226 246  0.0   0.1+
021107 926  0.8+  0.2+    021225 046  0.1-  0.1+    030226 246  0.4-  0.7+
021108 926  0.1-  0.4-    021225 046  0.1+  0.1+    030227 246  0.3+  0.3-
021108 926  0.5+  0.1-    021225 046  0.1+  0.6-    030227 246  0.1-  0.5+
021108 557  0.3-  0.1-    021225 046  0.6-  0.0     030227 246  0.2-  0.2+
021108 557  0.2-  0.6+    021225 046  0.9-  0.5-    030227 246  0.7-  0.4+
021109 118  0.8+  0.2+    021225 046  0.3+  0.1-    030227 246  0.3-  0.2+
021109 118  0.7+  0.6-    021227 360  0.3+  0.3-    030227 246  0.5-  0.2+
021109 118  0.6+  0.4+    021227 360  0.2-  0.1-
021109 118  0.3-  0.5-    021230 349  1.4-  0.8-

     The "original" and "future" barycentric values of 1/a are +0.000447
and +0.000437 (+/- 0.000012) AU**-1, respectively.

Brian G. Marsden             (C) Copyright 2003 MPC           M.P.E.C. 2003-E19

Read MPEC 2003-E18 Read MPEC 2003-E20


Our Web policy. Index to the CBAT/MPC/ICQ pages.


Valid HTML 4.01!